Time,TemperatureF,DewpointF,PressureIn,WindDirection,WindDirectionDegrees,WindSpeedMPH,WindSpeedGustMPH,Humidity,HourlyPrecipIn,Conditions,Clouds,dailyrainin,SolarRadiationWatts/m^2,SoftwareType,DateUTC
2014-07-23 00:00:00,71.6,64.4,30.07,NNW,341,0.0,6.0,78,0.00,,CLR,0.00,0.00,VWS V14.00,2014-07-23 05:00:00,
2014-07-23 00:02:00,71.6,64.4,30.07,NNW,338,4.0,6.0,78,0.00,,CLR,0.00,0.00,VWS V14.00,2014-07-23 05:02:00,
2014-07-23 00:03:00,71.6,64.0,30.07,NNW,340,0.0,1.0,77,0.00,,CLR,0.00,0.00,VWS V14.00,2014-07-23 05:03:00,
2014-07-23 00:04:00,71.6,64.0,30.07,NNW,338,0.0,5.0,77,0.00,,CLR,0.00,0.00,VWS V14.00,2014-07-23 05:04:00,
2014-07-23 00:05:00,71.6,64.0,30.07,NNW,337,1.0,5.0,77,0.00,,CLR,0.00,0.00,VWS V14.00,2014-07-23 05:05:00,
2014-07-23 00:06:00,71.5,63.9,30.07,North,355,2.0,6.0,77,0.00,,CLR,0.00,0.00,VWS V14.00,2014-07-23 05:06:00,
2014-07-23 00:07:00,71.5,63.9,30.07,NNW,338,2.0,6.0,77,0.00,,CLR,0.00,0.00,VWS V14.00,2014-07-23 05:07:00,
2014-07-23 00:08:00,71.5,63.9,30.07,North,360,1.0,1.0,77,0.00,,CLR,0.00,0.00,VWS V14.00,2014-07-23 05:08:00,
2014-07-23 00:09:00,71.5,63.9,30.07,North,355,0.0,6.0,77,0.00,,CLR,0.00,0.00,VWS V14.00,2014-07-23 05:09:00,
2014-07-23 00:10:00,71.5,63.9,30.07,North,350,0.0,6.0,77,0.00,,CLR,0.00,0.00,VWS V14.00,2014-07-23 05:10:00,
2014-07-23 00:11:00,71.5,63.9,30.07,North,351,2.0,6.0,77,0.00,,CLR,0.00,0.00,VWS V14.00,2014-07-23 05:11:00,
2014-07-23 00:13:00,71.4,63.8,30.07,NNW,335,0.0,3.0,77,0.00,,CLR,0.00,0.00,VWS V14.00,2014-07-23 05:13:00,
2014-07-23 00:15:00,71.3,63.7,30.07,NNW,327,0.0,6.0,77,0.00,,CLR,0.00,0.00,VWS V14.00,2014-07-23 05:15:00,
2014-07-23 00:17:00,71.2,64.0,30.07,NNW,334,0.0,6.0,78,0.00,,CLR,0.00,0.00,VWS V14.00,2014-07-23 05:17:00,
2014-07-23 00:18:00,71.2,64.0,30.07,NNW,334,3.0,4.0,78,0.00,,CLR,0.00,0.00,VWS V14.00,2014-07-23 05:18:00,
2014-07-23 00:19:00,71.2,64.0,30.07,North,355,3.0,6.0,78,0.00,,CLR,0.00,0.00,VWS V14.00,2014-07-23 05:19:00,
2014-07-23 00:20:00,71.1,63.9,30.07,NNW,342,4.0,6.0,78,0.00,,CLR,0.00,0.00,VWS V14.00,2014-07-23 05:20:00,
2014-07-23 00:21:00,71.1,63.9,30.07,NNW,338,1.0,6.0,78,0.00,,CLR,0.00,0.00,VWS V14.00,2014-07-23 05:21:00,
2014-07-23 00:23:00,71.0,63.8,30.07,NNW,333,0.0,0.0,78,0.00,,CLR,0.00,0.00,VWS V14.00,2014-07-23 05:23:00,
2014-07-23 00:24:00,71.0,63.8,30.07,NNW,333,3.0,3.0,78,0.00,,CLR,0.00,0.00,VWS V14.00,2014-07-23 05:24:00,
2014-07-23 00:25:00,71.0,63.8,30.07,NNW,341,4.0,6.0,78,0.00,,CLR,0.00,0.00,VWS V14.00,2014-07-23 05:25:00,
2014-07-23 00:26:00,70.9,63.7,30.07,NW,317,2.0,6.0,78,0.00,,CLR,0.00,0.00,VWS V14.00,2014-07-23 05:26:00,
2014-07-23 00:28:00,70.8,63.6,30.07,NNW,327,2.0,5.0,78,0.00,,CLR,0.00,0.00,VWS V14.00,2014-07-23 05:28:00,
2014-07-23 00:29:00,70.8,63.6,30.07,NNW,333,3.0,5.0,78,0.00,,CLR,0.00,0.00,VWS V14.00,2014-07-23 05:29:00,
2014-07-23 00:30:00,70.8,63.6,30.07,NNW,342,0.0,7.0,78,0.00,,CLR,0.00,0.00,VWS V14.00,2014-07-23 05:30:00,
2014-07-23 00:31:00,70.7,63.5,30.07,NNW,339,1.0,7.0,78,0.00,,CLR,0.00,0.00,VWS V14.00,2014-07-23 05:31:00,
2014-07-23 00:33:00,70.7,63.5,30.07,NNW,336,4.0,4.0,78,0.00,,CLR,0.00,0.00,VWS V14.00,2014-07-23 05:33:00,
2014-07-23 00:34:00,70.7,63.5,30.07,NNW,336,1.0,4.0,78,0.00,,CLR,0.00,0.00,VWS V14.00,2014-07-23 05:34:00,
2014-07-23 00:36:00,70.6,63.4,30.08,NW,325,1.0,4.0,78,0.00,,CLR,0.00,0.00,VWS V14.00,2014-07-23 05:36:00,
2014-07-23 00:39:00,70.5,63.3,30.08,NNW,332,1.0,8.0,78,0.00,,CLR,0.00,0.00,VWS V14.00,2014-07-23 05:39:00,
2014-07-23 00:40:00,70.5,63.3,30.08,NNW,332,4.0,8.0,78,0.00,,CLR,0.00,0.00,VWS V14.00,2014-07-23 05:40:00,
2014-07-23 00:41:00,70.5,63.7,30.08,NNW,330,0.0,8.0,79,0.00,,CLR,0.00,0.00,VWS V14.00,2014-07-23 05:41:00,
2014-07-23 00:42:00,70.4,63.2,30.08,NNW,338,0.0,8.0,78,0.00,,CLR,0.00,0.00,VWS V14.00,2014-07-23 05:42:00,
2014-07-23 00:44:00,70.4,63.2,30.08,NNW,332,3.0,5.0,78,0.00,,CLR,0.00,0.00,VWS V14.00,2014-07-23 05:44:00,
2014-07-23 00:45:00,70.4,63.2,30.08,NNW,344,6.0,7.0,78,0.00,,CLR,0.00,0.00,VWS V14.00,2014-07-23 05:45:00,
2014-07-23 00:46:00,70.4,63.2,30.08,NNW,336,0.0,7.0,78,0.00,,CLR,0.00,0.00,VWS V14.00,2014-07-23 05:46:00,
2014-07-23 00:47:00,70.4,63.2,30.08,NNW,333,5.0,7.0,78,0.00,,CLR,0.00,0.00,VWS V14.00,2014-07-23 05:47:00,
2014-07-23 00:49:00,70.4,63.2,30.08,NNW,333,3.0,3.0,78,0.00,,CLR,0.00,0.00,VWS V14.00,2014-07-23 05:49:00,
2014-07-23 00:50:00,70.3,63.1,30.08,North,351,0.0,8.0,78,0.00,,CLR,0.00,0.00,VWS V14.00,2014-07-23 05:50:00,
2014-07-23 00:51:00,70.3,63.1,30.08,North,355,5.0,8.0,78,0.00,,CLR,0.00,0.00,VWS V14.00,2014-07-23 05:51:00,
2014-07-23 00:52:00,70.3,63.1,30.08,NNW,340,3.0,8.0,78,0.00,,CLR,0.00,0.00,VWS V14.00,2014-07-23 05:52:00,
2014-07-23 00:54:00,70.3,63.1,30.08,NNW,346,0.0,8.0,78,0.00,,CLR,0.00,0.00,VWS V14.00,2014-07-23 05:54:00,
2014-07-23 00:55:00,70.3,63.1,30.08,North,360,5.0,8.0,78,0.00,,CLR,0.00,0.00,VWS V14.00,2014-07-23 05:55:00,
2014-07-23 00:57:00,70.3,63.1,30.08,NW,323,0.0,8.0,78,0.00,,CLR,0.00,0.00,VWS V14.00,2014-07-23 05:57:00,
2014-07-23 00:58:00,70.3,63.1,30.08,NNW,331,0.0,4.0,78,0.00,,CLR,0.00,0.00,VWS V14.00,2014-07-23 05:58:00,
2014-07-23 00:59:00,70.3,63.1,30.08,North,351,1.0,4.0,78,0.00,,CLR,0.00,0.00,VWS V14.00,2014-07-23 05:59:00,
2014-07-23 01:00:00,70.2,63.0,30.08,NW,304,4.0,5.0,78,0.00,,CLR,0.00,0.00,VWS V14.00,2014-07-23 06:00:00,
2014-07-23 01:02:00,70.2,63.0,30.08,NNW,339,5.0,6.0,78,0.00,,CLR,0.00,0.00,VWS V14.00,2014-07-23 06:02:00,
2014-07-23 01:03:00,70.2,63.0,30.08,North,10,3.0,3.0,78,0.00,,CLR,0.00,0.00,VWS V14.00,2014-07-23 06:03:00,
2014-07-23 01:05:00,70.1,62.9,30.08,NNW,338,0.0,6.0,78,0.00,,CLR,0.00,0.00,VWS V14.00,2014-07-23 06:05:00,
2014-07-23 01:06:00,70.1,62.9,30.08,NNW,327,6.0,6.0,78,0.00,,CLR,0.00,0.00,VWS V14.00,2014-07-23 06:06:00,
2014-07-23 01:07:00,70.1,62.9,30.08,North,5,2.0,6.0,78,0.00,,CLR,0.00,0.00,VWS V14.00,2014-07-23 06:07:00,
2014-07-23 01:08:00,70.0,62.8,30.08,NNW,333,2.0,2.0,78,0.00,,CLR,0.00,0.00,VWS V14.00,2014-07-23 06:08:00,
2014-07-23 01:10:00,69.9,62.7,30.08,NW,326,5.0,5.0,78,0.00,,CLR,0.00,0.00,VWS V14.00,2014-07-23 06:10:00,
2014-07-23 01:11:00,69.9,62.7,30.08,NNW,335,3.0,8.0,78,0.00,,CLR,0.00,0.00,VWS V14.00,2014-07-23 06:11:00,
2014-07-23 01:12:00,69.9,62.7,30.08,NW,313,2.0,8.0,78,0.00,,CLR,0.00,0.00,VWS V14.00,2014-07-23 06:12:00,
2014-07-23 01:13:00,69.8,62.6,30.08,NW,325,5.0,6.0,78,0.00,,CLR,0.00,0.00,VWS V14.00,2014-07-23 06:13:00,
2014-07-23 01:15:00,69.8,62.6,30.08,NNW,332,5.0,9.0,78,0.00,,CLR,0.00,0.00,VWS V14.00,2014-07-23 06:15:00,
2014-07-23 01:17:00,69.7,62.5,30.08,NNW,328,8.0,11.0,78,0.00,,CLR,0.00,0.00,VWS V14.00,2014-07-23 06:17:00,
2014-07-23 01:18:00,69.7,62.5,30.08,NW,321,2.0,7.0,78,0.00,,CLR,0.00,0.00,VWS V14.00,2014-07-23 06:18:00,
2014-07-23 01:20:00,69.6,62.4,30.08,NNW,333,5.0,8.0,78,0.00,,CLR,0.00,0.00,VWS V14.00,2014-07-23 06:20:00,
2014-07-23 01:22:00,69.5,62.3,30.08,NW,325,5.0,9.0,78,0.00,,CLR,0.00,0.00,VWS V14.00,2014-07-23 06:22:00,
2014-07-23 01:23:00,69.5,62.3,30.08,North,349,5.0,5.0,78,0.00,,CLR,0.00,0.00,VWS V14.00,2014-07-23 06:23:00,
2014-07-23 01:25:00,69.5,62.3,30.08,NNW,338,3.0,9.0,78,0.00,,CLR,0.00,0.00,VWS V14.00,2014-07-23 06:25:00,
2014-07-23 01:27:00,69.4,62.2,30.09,NW,325,3.0,10.0,78,0.00,,CLR,0.00,0.00,VWS V14.00,2014-07-23 06:27:00,
2014-07-23 01:28:00,69.4,62.2,30.08,NW,324,2.0,7.0,78,0.00,,CLR,0.00,0.00,VWS V14.00,2014-07-23 06:28:00,
2014-07-23 01:29:00,69.4,62.6,30.09,North,355,7.0,8.0,79,0.00,,CLR,0.00,0.00,VWS V14.00,2014-07-23 06:29:00,
2014-07-23 01:30:00,69.3,62.2,30.08,NNW,348,6.0,8.0,78,0.00,,CLR,0.00,0.00,VWS V14.00,2014-07-23 06:30:00,
2014-07-23 01:32:00,69.3,62.5,30.09,North,355,7.0,8.0,79,0.00,,CLR,0.00,0.00,VWS V14.00,2014-07-23 06:32:00,
2014-07-23 01:33:00,69.2,62.4,30.09,NNW,342,8.0,10.0,79,0.00,,CLR,0.00,0.00,VWS V14.00,2014-07-23 06:33:00,
2014-07-23 01:34:00,69.2,62.4,30.09,NW,323,4.0,10.0,79,0.00,,CLR,0.00,0.00,VWS V14.00,2014-07-23 06:34:00,
2014-07-23 01:35:00,69.2,62.1,30.09,NNW,333,1.0,10.0,78,0.00,,CLR,0.00,0.00,VWS V14.00,2014-07-23 06:35:00,
2014-07-23 01:38:00,69.1,62.0,30.09,NNW,335,0.0,2.0,78,0.00,,CLR,0.00,0.00,VWS V14.00,2014-07-23 06:38:00,
2014-07-23 01:39:00,69.1,62.3,30.09,NNW,331,3.0,5.0,79,0.00,,CLR,0.00,0.00,VWS V14.00,2014-07-23 06:39:00,
2014-07-23 01:40:00,69.0,62.2,30.09,North,355,3.0,5.0,79,0.00,,CLR,0.00,0.00,VWS V14.00,2014-07-23 06:40:00,
2014-07-23 01:43:00,68.9,62.1,30.09,NNW,333,4.0,4.0,79,0.00,,CLR,0.00,0.00,VWS V14.00,2014-07-23 06:43:00,
2014-07-23 01:44:00,68.9,62.1,30.09,NNW,348,7.0,8.0,79,0.00,,CLR,0.00,0.00,VWS V14.00,2014-07-23 06:44:00,
2014-07-23 01:45:00,68.8,62.0,30.09,NW,323,0.0,8.0,79,0.00,,CLR,0.00,0.00,VWS V14.00,2014-07-23 06:45:00,
2014-07-23 01:48:00,68.7,61.9,30.09,NNW,348,5.0,6.0,79,0.00,,CLR,0.00,0.00,VWS V14.00,2014-07-23 06:48:00,
2014-07-23 01:49:00,68.7,61.9,30.09,NNW,344,3.0,6.0,79,0.00,,CLR,0.00,0.00,VWS V14.00,2014-07-23 06:49:00,
2014-07-23 01:50:00,68.6,61.8,30.09,NNW,342,0.0,6.0,79,0.00,,CLR,0.00,0.00,VWS V14.00,2014-07-23 06:50:00,
2014-07-23 01:54:00,68.5,61.7,30.09,NNW,338,0.0,6.0,79,0.00,,CLR,0.00,0.00,VWS V14.00,2014-07-23 06:54:00,
2014-07-23 01:55:00,68.5,61.7,30.09,NNW,329,5.0,11.0,79,0.00,,CLR,0.00,0.00,VWS V14.00,2014-07-23 06:55:00,
2014-07-23 01:59:00,68.3,61.9,30.09,NNW,346,3.0,9.0,80,0.00,,CLR,0.00,0.00,VWS V14.00,2014-07-23 06:59:00,
2014-07-23 02:00:00,68.2,61.8,30.09,NW,309,1.0,9.0,80,0.00,,CLR,0.00,0.00,VWS V14.00,2014-07-23 07:00:00,
2014-07-23 02:04:00,68.1,61.7,30.09,NNW,330,4.0,9.0,80,0.00,,CLR,0.00,0.00,VWS V14.00,2014-07-23 07:04:00,
2014-07-23 02:05:00,68.1,61.7,30.09,NNW,337,6.0,9.0,80,0.00,,CLR,0.00,0.00,VWS V14.00,2014-07-23 07:05:00,
2014-07-23 02:06:00,68.0,61.6,30.09,North,5,9.0,9.0,80,0.00,,CLR,0.00,0.00,VWS V14.00,2014-07-23 07:06:00,
2014-07-23 02:10:00,67.9,61.5,30.09,NNW,334,6.0,8.0,80,0.00,,CLR,0.00,0.00,VWS V14.00,2014-07-23 07:10:00,
2014-07-23 02:11:00,67.9,61.5,30.09,NNW,336,3.0,8.0,80,0.00,,CLR,0.00,0.00,VWS V14.00,2014-07-23 07:11:00,
2014-07-23 02:15:00,67.8,61.4,30.09,North,355,7.0,11.0,80,0.00,,CLR,0.00,0.00,VWS V14.00,2014-07-23 07:15:00,
2014-07-23 02:16:00,67.7,61.3,30.09,North,355,8.0,11.0,80,0.00,,CLR,0.00,0.00,VWS V14.00,2014-07-23 07:16:00,
2014-07-23 02:20:00,67.6,61.2,30.10,North,355,5.0,10.0,80,0.00,,CLR,0.00,0.00,VWS V14.00,2014-07-23 07:20:00,
2014-07-23 02:21:00,67.6,61.2,30.10,NNW,341,0.0,10.0,80,0.00,,CLR,0.00,0.00,VWS V14.00,2014-07-23 07:21:00,
2014-07-23 02:25:00,67.5,61.1,30.10,NNW,341,2.0,7.0,80,0.00,,CLR,0.00,0.00,VWS V14.00,2014-07-23 07:25:00,
2014-07-23 02:26:00,67.5,61.1,30.10,NNW,346,5.0,8.0,80,0.00,,CLR,0.00,0.00,VWS V14.00,2014-07-23 07:26:00,
2014-07-23 02:27:00,67.4,61.0,30.10,North,9,1.0,8.0,80,0.00,,CLR,0.00,0.00,VWS V14.00,2014-07-23 07:27:00,
2014-07-23 02:30:00,67.4,61.0,30.09,NNW,336,0.0,9.0,80,0.00,,CLR,0.00,0.00,VWS V14.00,2014-07-23 07:30:00,
2014-07-23 02:31:00,67.3,60.9,30.10,NNW,331,6.0,9.0,80,0.00,,CLR,0.00,0.00,VWS V14.00,2014-07-23 07:31:00,
2014-07-23 02:32:00,67.3,60.9,30.10,NNW,348,6.0,9.0,80,0.00,,CLR,0.00,0.00,VWS V14.00,2014-07-23 07:32:00,
2014-07-23 02:36:00,67.2,60.8,30.09,NNW,338,4.0,9.0,80,0.00,,CLR,0.00,0.00,VWS V14.00,2014-07-23 07:36:00,
2014-07-23 02:37:00,67.2,60.8,30.09,NNW,333,4.0,9.0,80,0.00,,CLR,0.00,0.00,VWS V14.00,2014-07-23 07:37:00,
2014-07-23 02:38:00,67.2,60.8,30.09,North,350,0.0,0.0,80,0.00,,CLR,0.00,0.00,VWS V14.00,2014-07-23 07:38:00,
2014-07-23 02:41:00,67.1,61.1,30.09,NW,326,3.0,8.0,81,0.00,,CLR,0.00,0.00,VWS V14.00,2014-07-23 07:41:00,
2014-07-23 02:42:00,67.1,61.1,30.09,NW,326,5.0,8.0,81,0.00,,CLR,0.00,0.00,VWS V14.00,2014-07-23 07:42:00,
2014-07-23 02:43:00,67.0,61.0,30.09,NNW,348,7.0,9.0,81,0.00,,CLR,0.00,0.00,VWS V14.00,2014-07-23 07:43:00,
2014-07-23 02:47:00,66.9,60.5,30.10,NNW,338,5.0,10.0,80,0.00,,CLR,0.00,0.00,VWS V14.00,2014-07-23 07:47:00,
2014-07-23 02:48:00,66.9,60.5,30.10,North,355,3.0,5.0,80,0.00,,CLR,0.00,0.00,VWS V14.00,2014-07-23 07:48:00,
2014-07-23 02:52:00,66.8,60.8,30.09,North,355,5.0,8.0,81,0.00,,CLR,0.00,0.00,VWS V14.00,2014-07-23 07:52:00,
2014-07-23 02:53:00,66.8,60.8,30.09,NNW,348,3.0,3.0,81,0.00,,CLR,0.00,0.00,VWS V14.00,2014-07-23 07:53:00,
2014-07-23 02:57:00,66.7,60.7,30.09,North,355,0.0,8.0,81,0.00,,CLR,0.00,0.00,VWS V14.00,2014-07-23 07:57:00,
2014-07-23 02:58:00,66.7,60.7,30.09,NNW,339,3.0,4.0,81,0.00,,CLR,0.00,0.00,VWS V14.00,2014-07-23 07:58:00,
2014-07-23 03:02:00,66.5,60.5,30.09,NNW,347,4.0,8.0,81,0.00,,CLR,0.00,0.00,VWS V14.00,2014-07-23 08:02:00,
2014-07-23 03:03:00,66.5,60.5,30.09,NNW,336,6.0,8.0,81,0.00,,CLR,0.00,0.00,VWS V14.00,2014-07-23 08:03:00,
2014-07-23 03:04:00,66.5,60.5,30.09,NNW,348,4.0,8.0,81,0.00,,CLR,0.00,0.00,VWS V14.00,2014-07-23 08:04:00,
2014-07-23 03:07:00,66.4,60.4,30.09,NNW,339,3.0,8.0,81,0.00,,CLR,0.00,0.00,VWS V14.00,2014-07-23 08:07:00,
2014-07-23 03:09:00,66.3,60.3,30.09,North,349,0.0,9.0,81,0.00,,CLR,0.00,0.00,VWS V14.00,2014-07-23 08:09:00,
2014-07-23 03:12:00,66.2,60.2,30.09,North,11,1.0,9.0,81,0.00,,CLR,0.00,0.00,VWS V14.00,2014-07-23 08:12:00,
2014-07-23 03:14:00,66.2,60.2,30.09,NNW,348,7.0,9.0,81,0.00,,CLR,0.00,0.00,VWS V14.00,2014-07-23 08:14:00,
2014-07-23 03:15:00,66.1,60.1,30.09,NNW,336,5.0,9.0,81,0.00,,CLR,0.00,0.00,VWS V14.00,2014-07-23 08:15:00,
2014-07-23 03:17:00,66.0,60.3,30.09,NNW,348,0.0,9.0,82,0.00,,CLR,0.00,0.00,VWS V14.00,2014-07-23 08:17:00,
2014-07-23 03:18:00,65.9,60.3,30.09,NNW,347,0.0,0.0,82,0.00,,CLR,0.00,0.00,VWS V14.00,2014-07-23 08:18:00,
2014-07-23 03:19:00,65.9,60.3,30.09,NNW,347,0.0,0.0,82,0.00,,CLR,0.00,0.00,VWS V14.00,2014-07-23 08:19:00,
2014-07-23 03:20:00,65.9,60.3,30.10,NNW,336,8.0,8.0,82,0.00,,CLR,0.00,0.00,VWS V14.00,2014-07-23 08:20:00,
2014-07-23 03:22:00,65.8,60.2,30.10,NNW,348,6.0,9.0,82,0.00,,CLR,0.00,0.00,VWS V14.00,2014-07-23 08:22:00,
2014-07-23 03:24:00,65.7,60.1,30.10,NNW,348,0.0,7.0,82,0.00,,CLR,0.00,0.00,VWS V14.00,2014-07-23 08:24:00,
2014-07-23 03:25:00,65.7,60.1,30.10,North,360,3.0,7.0,82,0.00,,CLR,0.00,0.00,VWS V14.00,2014-07-23 08:25:00,
2014-07-23 03:27:00,65.6,60.0,30.10,North,351,2.0,5.0,82,0.00,,CLR,0.00,0.00,VWS V14.00,2014-07-23 08:27:00,
2014-07-23 03:29:00,65.6,60.0,30.10,NNW,343,1.0,5.0,82,0.00,,CLR,0.00,0.00,VWS V14.00,2014-07-23 08:29:00,
2014-07-23 03:30:00,65.6,60.0,30.10,NNW,339,5.0,5.0,82,0.00,,CLR,0.00,0.00,VWS V14.00,2014-07-23 08:30:00,
2014-07-23 03:31:00,65.6,60.0,30.10,NNW,340,0.0,6.0,82,0.00,,CLR,0.00,0.00,VWS V14.00,2014-07-23 08:31:00,
2014-07-23 03:33:00,65.6,60.0,30.10,NNW,342,0.0,4.0,82,0.00,,CLR,0.00,0.00,VWS V14.00,2014-07-23 08:33:00,
2014-07-23 03:34:00,65.5,59.9,30.10,NNW,340,0.0,6.0,82,0.00,,CLR,0.00,0.00,VWS V14.00,2014-07-23 08:34:00,
2014-07-23 03:35:00,65.5,59.9,30.10,NNW,338,2.0,6.0,82,0.00,,CLR,0.00,0.00,VWS V14.00,2014-07-23 08:35:00,
2014-07-23 03:37:00,65.4,59.8,30.10,NW,323,0.0,6.0,82,0.00,,CLR,0.00,0.00,VWS V14.00,2014-07-23 08:37:00,
2014-07-23 03:38:00,65.4,60.1,30.10,NNW,329,3.0,3.0,83,0.00,,CLR,0.00,0.00,VWS V14.00,2014-07-23 08:38:00,
2014-07-23 03:40:00,65.3,60.0,30.10,NNW,334,0.0,3.0,83,0.00,,CLR,0.00,0.00,VWS V14.00,2014-07-23 08:40:00,
2014-07-23 03:42:00,65.2,59.9,30.10,NNW,346,2.0,4.0,83,0.00,,CLR,0.00,0.00,VWS V14.00,2014-07-23 08:42:00,
2014-07-23 03:43:00,65.1,59.8,30.10,NNW,339,4.0,6.0,83,0.00,,CLR,0.00,0.00,VWS V14.00,2014-07-23 08:43:00,
2014-07-23 03:45:00,65.1,59.8,30.10,NNW,338,0.0,7.0,83,0.00,,CLR,0.00,0.00,VWS V14.00,2014-07-23 08:45:00,
2014-07-23 03:47:00,65.0,59.7,30.10,NNW,334,1.0,7.0,83,0.00,,CLR,0.00,0.00,VWS V14.00,2014-07-23 08:47:00,
2014-07-23 03:48:00,65.0,59.7,30.10,NNW,343,0.0,6.0,83,0.00,,CLR,0.00,0.00,VWS V14.00,2014-07-23 08:48:00,
2014-07-23 03:50:00,64.9,59.6,30.10,NNW,339,0.0,6.0,83,0.00,,CLR,0.00,0.00,VWS V14.00,2014-07-23 08:50:00,
2014-07-23 03:53:00,64.9,59.6,30.10,NNW,348,1.0,5.0,83,0.00,,CLR,0.00,0.00,VWS V14.00,2014-07-23 08:53:00,
2014-07-23 03:54:00,64.9,59.6,30.10,NNW,346,3.0,5.0,83,0.00,,CLR,0.00,0.00,VWS V14.00,2014-07-23 08:54:00,
2014-07-23 03:55:00,64.8,59.5,30.10,NNW,336,0.0,5.0,83,0.00,,CLR,0.00,0.00,VWS V14.00,2014-07-23 08:55:00,
2014-07-23 03:56:00,64.8,59.5,30.10,NNW,336,0.0,5.0,83,0.00,,CLR,0.00,0.00,VWS V14.00,2014-07-23 08:56:00,
2014-07-23 03:59:00,64.7,59.4,30.10,North,355,5.0,6.0,83,0.00,,CLR,0.00,0.00,VWS V14.00,2014-07-23 08:59:00,
2014-07-23 04:00:00,64.7,59.4,30.10,NNW,336,1.0,6.0,83,0.00,,CLR,0.00,0.00,VWS V14.00,2014-07-23 09:00:00,
2014-07-23 04:01:00,64.7,59.4,30.10,NNW,334,0.0,6.0,83,0.00,,CLR,0.00,0.00,VWS V14.00,2014-07-23 09:01:00,
2014-07-23 04:02:00,64.7,59.8,30.10,NNW,339,0.0,3.0,84,0.00,,CLR,0.00,0.00,VWS V14.00,2014-07-23 09:02:00,
2014-07-23 04:04:00,64.6,59.7,30.10,NNE,17,0.0,6.0,84,0.00,,CLR,0.00,0.00,VWS V14.00,2014-07-23 09:04:00,
2014-07-23 04:05:00,64.6,59.7,30.10,North,5,0.0,6.0,84,0.00,,CLR,0.00,0.00,VWS V14.00,2014-07-23 09:05:00,
2014-07-23 04:06:00,64.6,59.7,30.10,North,360,5.0,6.0,84,0.00,,CLR,0.00,0.00,VWS V14.00,2014-07-23 09:06:00,
2014-07-23 04:09:00,64.6,59.7,30.10,North,349,4.0,7.0,84,0.00,,CLR,0.00,0.00,VWS V14.00,2014-07-23 09:09:00,
2014-07-23 04:10:00,64.6,59.7,30.10,North,360,1.0,7.0,84,0.00,,CLR,0.00,0.00,VWS V14.00,2014-07-23 09:10:00,
2014-07-23 04:11:00,64.5,59.6,30.10,North,351,0.0,7.0,84,0.00,,CLR,0.00,0.00,VWS V14.00,2014-07-23 09:11:00,
2014-07-23 04:12:00,64.5,59.6,30.10,NNW,340,5.0,7.0,84,0.00,,CLR,0.00,0.00,VWS V14.00,2014-07-23 09:12:00,
2014-07-23 04:14:00,64.5,59.6,30.10,NNW,334,3.0,7.0,84,0.00,,CLR,0.00,0.00,VWS V14.00,2014-07-23 09:14:00,
2014-07-23 04:15:00,64.5,59.6,30.10,North,5,3.0,7.0,84,0.00,,CLR,0.00,0.00,VWS V14.00,2014-07-23 09:15:00,
2014-07-23 04:16:00,64.5,59.6,30.10,NNW,331,3.0,7.0,84,0.00,,CLR,0.00,0.00,VWS V14.00,2014-07-23 09:16:00,
2014-07-23 04:17:00,64.5,59.6,30.10,North,355,0.0,7.0,84,0.00,,CLR,0.00,0.00,VWS V14.00,2014-07-23 09:17:00,
2014-07-23 04:20:00,64.4,59.5,30.10,NNE,18,6.0,7.0,84,0.00,,CLR,0.00,0.00,VWS V14.00,2014-07-23 09:20:00,
2014-07-23 04:21:00,64.3,59.4,30.10,North,350,5.0,7.0,84,0.00,,CLR,0.00,0.00,VWS V14.00,2014-07-23 09:21:00,
2014-07-23 04:22:00,64.3,59.4,30.10,North,5,5.0,7.0,84,0.00,,CLR,0.00,0.00,VWS V14.00,2014-07-23 09:22:00,
2014-07-23 04:25:00,64.2,59.3,30.10,NNW,344,0.0,7.0,84,0.00,,CLR,0.00,0.00,VWS V14.00,2014-07-23 09:25:00,
2014-07-23 04:26:00,64.2,59.3,30.10,North,355,3.0,7.0,84,0.00,,CLR,0.00,0.00,VWS V14.00,2014-07-23 09:26:00,
2014-07-23 04:27:00,64.2,59.3,30.10,NNW,340,1.0,7.0,84,0.00,,CLR,0.00,0.00,VWS V14.00,2014-07-23 09:27:00,
2014-07-23 04:30:00,64.1,59.2,30.10,North,355,1.0,3.0,84,0.00,,CLR,0.00,0.00,VWS V14.00,2014-07-23 09:30:00,
2014-07-23 04:31:00,64.0,59.1,30.10,NNW,343,0.0,3.0,84,0.00,,CLR,0.00,0.00,VWS V14.00,2014-07-23 09:31:00,
2014-07-23 04:32:00,64.0,59.1,30.11,NNW,343,0.0,3.0,84,0.00,,CLR,0.00,0.00,VWS V14.00,2014-07-23 09:32:00,
2014-07-23 04:35:00,63.9,59.3,30.10,NNW,343,0.0,7.0,85,0.00,,CLR,0.00,0.00,VWS V14.00,2014-07-23 09:35:00,
2014-07-23 04:36:00,63.9,59.3,30.10,NNW,340,0.0,7.0,85,0.00,,CLR,0.00,0.00,VWS V14.00,2014-07-23 09:36:00,
2014-07-23 04:37:00,63.9,59.3,30.10,NNW,338,4.0,7.0,85,0.00,,CLR,0.00,0.00,VWS V14.00,2014-07-23 09:37:00,
2014-07-23 04:38:00,63.8,59.2,30.10,North,360,0.0,0.0,85,0.00,,CLR,0.00,0.00,VWS V14.00,2014-07-23 09:38:00,
2014-07-23 04:40:00,63.8,59.2,30.10,NNW,341,0.0,6.0,85,0.00,,CLR,0.00,0.00,VWS V14.00,2014-07-23 09:40:00,
2014-07-23 04:41:00,63.7,59.1,30.10,NNW,338,5.0,6.0,85,0.00,,CLR,0.00,0.00,VWS V14.00,2014-07-23 09:41:00,
2014-07-23 04:42:00,63.6,59.0,30.10,North,355,4.0,6.0,85,0.00,,CLR,0.00,0.00,VWS V14.00,2014-07-23 09:42:00,
2014-07-23 04:43:00,63.6,59.0,30.11,North,360,0.0,4.0,85,0.00,,CLR,0.00,0.00,VWS V14.00,2014-07-23 09:43:00,
2014-07-23 04:45:00,63.6,59.0,30.11,NNW,342,0.0,7.0,85,0.00,,CLR,0.00,0.00,VWS V14.00,2014-07-23 09:45:00,
2014-07-23 04:46:00,63.6,59.0,30.10,NNW,335,4.0,7.0,85,0.00,,CLR,0.00,0.00,VWS V14.00,2014-07-23 09:46:00,
2014-07-23 04:47:00,63.5,58.9,30.11,North,350,0.0,7.0,85,0.00,,CLR,0.00,0.00,VWS V14.00,2014-07-23 09:47:00,
2014-07-23 04:49:00,63.5,58.9,30.11,North,355,5.0,5.0,85,0.00,,CLR,0.00,0.00,VWS V14.00,2014-07-23 09:49:00,
2014-07-23 04:50:00,63.4,58.8,30.10,North,360,0.0,8.0,85,0.00,,CLR,0.00,0.00,VWS V14.00,2014-07-23 09:50:00,
2014-07-23 04:51:00,63.4,58.8,30.10,North,10,5.0,8.0,85,0.00,,CLR,0.00,0.00,VWS V14.00,2014-07-23 09:51:00,
2014-07-23 04:52:00,63.4,58.8,30.10,NNW,331,0.0,8.0,85,0.00,,CLR,0.00,0.00,VWS V14.00,2014-07-23 09:52:00,
2014-07-23 04:54:00,63.4,59.2,30.10,NNW,339,4.0,4.0,86,0.00,,CLR,0.00,0.00,VWS V14.00,2014-07-23 09:54:00,
2014-07-23 04:56:00,63.2,59.0,30.10,North,355,3.0,5.0,86,0.00,,CLR,0.00,0.00,VWS V14.00,2014-07-23 09:56:00,
2014-07-23 04:57:00,63.2,59.0,30.10,NNW,338,0.0,5.0,86,0.00,,CLR,0.00,0.00,VWS V14.00,2014-07-23 09:57:00,
2014-07-23 04:59:00,63.1,58.8,30.10,North,355,1.0,7.0,86,0.00,,CLR,0.00,0.00,VWS V14.00,2014-07-23 09:59:00,
2014-07-23 05:01:00,63.0,58.8,30.10,NNW,338,4.0,7.0,86,0.00,,CLR,0.00,0.00,VWS V14.00,2014-07-23 10:01:00,
2014-07-23 05:02:00,63.0,58.8,30.10,North,350,1.0,7.0,86,0.00,,CLR,0.00,0.00,VWS V14.00,2014-07-23 10:02:00,
2014-07-23 05:03:00,63.0,58.8,30.10,NNW,342,0.0,7.0,86,0.00,,CLR,0.00,0.00,VWS V14.00,2014-07-23 10:03:00,
2014-07-23 05:05:00,63.0,58.8,30.10,North,355,0.0,7.0,86,0.00,,CLR,0.00,0.00,VWS V14.00,2014-07-23 10:05:00,
2014-07-23 05:06:00,62.9,58.7,30.10,NNW,336,2.0,8.0,86,0.00,,CLR,0.00,0.00,VWS V14.00,2014-07-23 10:06:00,
2014-07-23 05:07:00,62.9,58.7,30.10,North,5,0.0,8.0,86,0.00,,CLR,0.00,0.00,VWS V14.00,2014-07-23 10:07:00,
2014-07-23 05:08:00,62.9,58.7,30.10,NNW,344,1.0,3.0,86,0.00,,CLR,0.00,0.00,VWS V14.00,2014-07-23 10:08:00,
2014-07-23 05:10:00,62.9,58.7,30.10,NNW,346,2.0,7.0,86,0.00,,CLR,0.00,0.00,VWS V14.00,2014-07-23 10:10:00,
2014-07-23 05:11:00,62.8,58.6,30.10,NNW,334,3.0,7.0,86,0.00,,CLR,0.00,0.00,VWS V14.00,2014-07-23 10:11:00,
2014-07-23 05:13:00,62.8,58.6,30.11,NNW,335,0.0,0.0,86,0.00,,CLR,0.00,0.00,VWS V14.00,2014-07-23 10:13:00,
2014-07-23 05:15:00,62.8,58.9,30.11,North,355,0.0,6.0,87,0.00,,CLR,0.00,0.00,VWS V14.00,2014-07-23 10:15:00,
2014-07-23 05:16:00,62.8,58.9,30.11,NNW,344,0.0,6.0,87,0.00,,CLR,0.00,0.00,VWS V14.00,2014-07-23 10:16:00,
2014-07-23 05:18:00,62.8,58.9,30.12,NNW,348,0.0,0.0,87,0.00,,CLR,0.00,0.00,VWS V14.00,2014-07-23 10:18:00,
2014-07-23 05:20:00,62.8,58.9,30.12,NNW,344,0.0,0.0,87,0.00,,CLR,0.00,0.00,VWS V14.00,2014-07-23 10:20:00,
2014-07-23 05:22:00,62.7,58.8,30.12,NNW,341,0.0,3.0,87,0.00,,CLR,0.00,0.00,VWS V14.00,2014-07-23 10:22:00,
2014-07-23 05:23:00,62.7,58.8,30.12,NNW,339,0.0,2.0,87,0.00,,CLR,0.00,0.00,VWS V14.00,2014-07-23 10:23:00,
2014-07-23 05:24:00,62.7,58.8,30.12,NNW,340,0.0,2.0,87,0.00,,CLR,0.00,0.00,VWS V14.00,2014-07-23 10:24:00,
2014-07-23 05:25:00,62.7,58.8,30.12,NNW,340,0.0,2.0,87,0.00,,CLR,0.00,0.00,VWS V14.00,2014-07-23 10:25:00,
2014-07-23 05:27:00,62.7,58.8,30.12,NNW,340,0.0,2.0,87,0.00,,CLR,0.00,0.00,VWS V14.00,2014-07-23 10:27:00,
2014-07-23 05:28:00,62.7,58.8,30.12,NNW,341,0.0,3.0,87,0.00,,CLR,0.00,0.00,VWS V14.00,2014-07-23 10:28:00,
2014-07-23 05:29:00,62.7,58.8,30.12,NNW,341,0.0,3.0,87,0.00,,CLR,0.00,0.00,VWS V14.00,2014-07-23 10:29:00,
2014-07-23 05:30:00,62.7,58.8,30.12,NNW,341,0.0,3.0,87,0.00,,CLR,0.00,0.00,VWS V14.00,2014-07-23 10:30:00,
2014-07-23 05:31:00,62.6,58.7,30.12,NNW,341,0.0,3.0,87,0.00,,CLR,0.00,0.00,VWS V14.00,2014-07-23 10:31:00,
2014-07-23 05:32:00,62.6,58.7,30.12,NNW,340,0.0,3.0,87,0.00,,CLR,0.00,0.00,VWS V14.00,2014-07-23 10:32:00,
2014-07-23 05:34:00,62.6,58.7,30.12,North,350,0.0,0.0,87,0.00,,CLR,0.00,0.00,VWS V14.00,2014-07-23 10:34:00,
2014-07-23 05:35:00,62.5,58.6,30.11,NNW,348,0.0,0.0,87,0.00,,CLR,0.00,0.00,VWS V14.00,2014-07-23 10:35:00,
2014-07-23 05:36:00,62.5,58.6,30.11,NNW,347,0.0,0.0,87,0.00,,CLR,0.00,0.00,VWS V14.00,2014-07-23 10:36:00,
2014-07-23 05:37:00,62.5,58.6,30.11,North,355,0.0,2.0,87,0.00,,CLR,0.00,0.00,VWS V14.00,2014-07-23 10:37:00,
2014-07-23 05:39:00,62.5,58.6,30.11,North,350,0.0,4.0,87,0.00,,CLR,0.00,0.00,VWS V14.00,2014-07-23 10:39:00,
2014-07-23 05:40:00,62.4,58.5,30.11,North,9,0.0,4.0,87,0.00,,CLR,0.00,0.00,VWS V14.00,2014-07-23 10:40:00,
2014-07-23 05:41:00,62.4,58.5,30.11,North,360,3.0,4.0,87,0.00,,CLR,0.00,0.00,VWS V14.00,2014-07-23 10:41:00,
2014-07-23 05:42:00,62.4,58.5,30.11,North,9,0.0,4.0,87,0.00,,CLR,0.00,0.00,VWS V14.00,2014-07-23 10:42:00,
2014-07-23 05:44:00,62.3,58.4,30.11,North,360,0.0,4.0,87,0.00,,CLR,0.00,0.00,VWS V14.00,2014-07-23 10:44:00,
2014-07-23 05:46:00,62.3,58.4,30.11,North,9,0.0,4.0,87,0.00,,CLR,0.00,0.00,VWS V14.00,2014-07-23 10:46:00,
2014-07-23 05:47:00,62.3,58.4,30.11,NNW,347,0.0,4.0,87,0.00,,CLR,0.00,0.00,VWS V14.00,2014-07-23 10:47:00,
2014-07-23 05:49:00,62.2,58.3,30.12,North,351,3.0,3.0,87,0.00,,CLR,0.00,0.00,VWS V14.00,2014-07-23 10:49:00,
2014-07-23 05:50:00,62.2,58.3,30.12,North,11,0.0,4.0,87,0.00,,CLR,0.00,0.00,VWS V14.00,2014-07-23 10:50:00,
2014-07-23 05:51:00,62.2,58.3,30.12,North,11,2.0,4.0,87,0.00,,CLR,0.00,0.00,VWS V14.00,2014-07-23 10:51:00,
2014-07-23 05:52:00,62.2,58.3,30.12,North,355,4.0,5.0,87,0.00,,CLR,0.00,0.00,VWS V14.00,2014-07-23 10:52:00,
2014-07-23 05:55:00,62.1,58.2,30.12,NNW,333,0.0,7.0,87,0.00,,CLR,0.00,0.00,VWS V14.00,2014-07-23 10:55:00,
2014-07-23 05:56:00,62.1,58.5,30.12,North,5,1.0,7.0,88,0.00,,CLR,0.00,0.00,VWS V14.00,2014-07-23 10:56:00,
2014-07-23 05:57:00,62.1,58.5,30.12,North,360,0.0,7.0,88,0.00,,CLR,0.00,0.00,VWS V14.00,2014-07-23 10:57:00,
2014-07-23 06:01:00,62.1,58.5,30.12,NNW,339,0.0,5.0,88,0.00,,CLR,0.00,0.00,VWS V14.00,2014-07-23 11:01:00,
2014-07-23 06:02:00,62.1,58.5,30.13,NNW,336,0.0,5.0,88,0.00,,CLR,0.00,0.00,VWS V14.00,2014-07-23 11:02:00,
2014-07-23 06:03:00,62.1,58.5,30.13,NNW,337,0.0,0.0,88,0.00,,CLR,0.00,0.00,VWS V14.00,2014-07-23 11:03:00,
2014-07-23 06:06:00,62.1,58.5,30.12,North,355,3.0,5.0,88,0.00,,CLR,0.00,5.00,VWS V14.00,2014-07-23 11:06:00,
2014-07-23 06:07:00,62.1,58.5,30.12,NNW,337,4.0,7.0,88,0.00,,CLR,0.00,5.00,VWS V14.00,2014-07-23 11:07:00,
2014-07-23 06:08:00,62.1,58.5,30.12,NNW,348,0.0,0.0,88,0.00,,CLR,0.00,7.00,VWS V14.00,2014-07-23 11:08:00,
2014-07-23 06:09:00,62.1,58.5,30.12,NNW,343,0.0,0.0,88,0.00,,CLR,0.00,7.00,VWS V14.00,2014-07-23 11:09:00,
2014-07-23 06:11:00,62.1,58.5,30.12,NNW,332,4.0,5.0,88,0.00,,CLR,0.00,9.00,VWS V14.00,2014-07-23 11:11:00,
2014-07-23 06:12:00,62.1,58.5,30.13,North,349,0.0,5.0,88,0.00,,CLR,0.00,9.00,VWS V14.00,2014-07-23 11:12:00,
2014-07-23 06:13:00,62.1,58.5,30.13,NNW,339,4.0,7.0,88,0.00,,CLR,0.00,11.00,VWS V14.00,2014-07-23 11:13:00,
2014-07-23 06:14:00,62.1,58.5,30.13,NNW,335,2.0,7.0,88,0.00,,CLR,0.00,11.00,VWS V14.00,2014-07-23 11:14:00,
2014-07-23 06:17:00,62.0,58.1,30.13,NNW,332,5.0,7.0,87,0.00,,CLR,0.00,12.00,VWS V14.00,2014-07-23 11:17:00,
2014-07-23 06:18:00,62.0,58.1,30.13,North,350,4.0,5.0,87,0.00,,CLR,0.00,14.00,VWS V14.00,2014-07-23 11:18:00,
2014-07-23 06:19:00,62.0,58.1,30.13,NNW,340,0.0,5.0,87,0.00,,CLR,0.00,14.00,VWS V14.00,2014-07-23 11:19:00,
2014-07-23 06:22:00,62.1,58.5,30.13,NNW,346,0.0,5.0,88,0.00,,CLR,0.00,18.00,VWS V14.00,2014-07-23 11:22:00,
2014-07-23 06:23:00,62.1,58.5,30.13,North,355,3.0,5.0,88,0.00,,CLR,0.00,19.00,VWS V14.00,2014-07-23 11:23:00,
2014-07-23 06:24:00,62.2,58.3,30.13,North,10,0.0,5.0,87,0.00,,CLR,0.00,21.00,VWS V14.00,2014-07-23 11:24:00,
2014-07-23 06:27:00,62.3,58.4,30.13,North,355,3.0,5.0,87,0.00,,CLR,0.00,25.00,VWS V14.00,2014-07-23 11:27:00,
2014-07-23 06:28:00,62.3,58.4,30.12,NNE,15,0.0,2.0,87,0.00,,CLR,0.00,28.00,VWS V14.00,2014-07-23 11:28:00,
2014-07-23 06:29:00,62.3,58.4,30.12,NNW,338,4.0,7.0,87,0.00,,CLR,0.00,28.00,VWS V14.00,2014-07-23 11:29:00,
2014-07-23 06:32:00,62.4,58.5,30.12,NNW,346,0.0,7.0,87,0.00,,CLR,0.00,35.00,VWS V14.00,2014-07-23 11:32:00,
2014-07-23 06:33:00,62.5,58.6,30.12,NNW,337,4.0,5.0,87,0.00,,CLR,0.00,37.00,VWS V14.00,2014-07-23 11:33:00,
2014-07-23 06:34:00,62.5,58.6,30.12,NNW,348,0.0,5.0,87,0.00,,CLR,0.00,37.00,VWS V14.00,2014-07-23 11:34:00,
2014-07-23 06:35:00,62.5,58.6,30.12,NNW,336,0.0,5.0,87,0.00,,CLR,0.00,39.00,VWS V14.00,2014-07-23 11:35:00,
2014-07-23 06:38:00,62.6,58.7,30.12,North,5,0.0,0.0,87,0.00,,CLR,0.00,46.00,VWS V14.00,2014-07-23 11:38:00,
2014-07-23 06:39:00,62.7,58.8,30.12,North,5,3.0,7.0,87,0.00,,CLR,0.00,47.00,VWS V14.00,2014-07-23 11:39:00,
2014-07-23 06:40:00,62.7,58.8,30.12,NNE,20,0.0,7.0,87,0.00,,CLR,0.00,49.00,VWS V14.00,2014-07-23 11:40:00,
2014-07-23 06:43:00,62.9,59.0,30.12,North,350,3.0,4.0,87,0.00,,CLR,0.00,56.00,VWS V14.00,2014-07-23 11:43:00,
2014-07-23 06:44:00,62.9,58.7,30.12,NNW,346,4.0,6.0,86,0.00,,CLR,0.00,58.00,VWS V14.00,2014-07-23 11:44:00,
2014-07-23 06:45:00,63.0,58.8,30.12,North,355,6.0,8.0,86,0.00,,CLR,0.00,60.00,VWS V14.00,2014-07-23 11:45:00,
2014-07-23 06:48:00,63.1,58.8,30.13,North,355,4.0,7.0,86,0.00,,CLR,0.00,69.00,VWS V14.00,2014-07-23 11:48:00,
2014-07-23 06:49:00,63.2,59.0,30.13,NNW,346,3.0,7.0,86,0.00,,CLR,0.00,70.00,VWS V14.00,2014-07-23 11:49:00,
2014-07-23 06:50:00,63.2,59.0,30.13,NNW,344,4.0,7.0,86,0.00,,CLR,0.00,72.00,VWS V14.00,2014-07-23 11:50:00,
2014-07-23 06:51:00,63.2,59.0,30.13,NNW,342,5.0,7.0,86,0.00,,CLR,0.00,74.00,VWS V14.00,2014-07-23 11:51:00,
2014-07-23 06:53:00,63.3,59.0,30.13,North,360,2.0,4.0,86,0.00,,CLR,0.00,81.00,VWS V14.00,2014-07-23 11:53:00,
2014-07-23 06:54:00,63.4,59.2,30.13,North,355,4.0,7.0,86,0.00,,CLR,0.00,84.00,VWS V14.00,2014-07-23 11:54:00,
2014-07-23 06:55:00,63.4,59.2,30.13,NNE,14,0.0,7.0,86,0.00,,CLR,0.00,84.00,VWS V14.00,2014-07-23 11:55:00,
2014-07-23 06:56:00,63.4,59.2,30.13,North,355,0.0,7.0,86,0.00,,CLR,0.00,86.00,VWS V14.00,2014-07-23 11:56:00,
2014-07-23 06:58:00,63.6,59.0,30.13,North,9,5.0,7.0,85,0.00,,CLR,0.00,93.00,VWS V14.00,2014-07-23 11:58:00,
2014-07-23 07:00:00,63.6,59.0,30.13,NNW,343,4.0,7.0,85,0.00,,CLR,0.00,98.00,VWS V14.00,2014-07-23 12:00:00,
2014-07-23 07:01:00,63.7,59.1,30.13,North,355,4.0,7.0,85,0.00,,CLR,0.00,100.00,VWS V14.00,2014-07-23 12:01:00,
2014-07-23 07:03:00,63.8,59.2,30.13,NNW,343,4.0,6.0,85,0.00,,CLR,0.00,109.00,VWS V14.00,2014-07-23 12:03:00,
2014-07-23 07:06:00,64.0,59.4,30.13,NNW,346,3.0,6.0,85,0.00,,CLR,0.00,116.00,VWS V14.00,2014-07-23 12:06:00,
2014-07-23 07:09:00,64.1,59.2,30.13,North,355,3.0,6.0,84,0.00,,CLR,0.00,128.00,VWS V14.00,2014-07-23 12:09:00,
2014-07-23 07:11:00,64.3,59.4,30.13,North,9,5.0,7.0,84,0.00,,CLR,0.00,134.00,VWS V14.00,2014-07-23 12:11:00,
2014-07-23 07:12:00,64.4,59.5,30.13,North,360,4.0,7.0,84,0.00,,CLR,0.00,137.00,VWS V14.00,2014-07-23 12:12:00,
2014-07-23 07:14:00,64.5,59.6,30.13,North,10,5.0,7.0,84,0.00,,CLR,0.00,144.00,VWS V14.00,2014-07-23 12:14:00,
2014-07-23 07:16:00,64.6,59.7,30.13,North,360,0.0,7.0,84,0.00,,CLR,0.00,149.00,VWS V14.00,2014-07-23 12:16:00,
2014-07-23 07:17:00,64.6,59.7,30.13,NNE,14,0.0,7.0,84,0.00,,CLR,0.00,149.00,VWS V14.00,2014-07-23 12:17:00,
2014-07-23 07:20:00,64.8,59.5,30.13,North,9,3.0,7.0,83,0.00,,CLR,0.00,163.00,VWS V14.00,2014-07-23 12:20:00,
2014-07-23 07:21:00,64.9,59.6,30.13,NNE,24,0.0,7.0,83,0.00,,CLR,0.00,167.00,VWS V14.00,2014-07-23 12:21:00,
2014-07-23 07:22:00,64.9,59.6,30.13,NNW,331,4.0,7.0,83,0.00,,CLR,0.00,169.00,VWS V14.00,2014-07-23 12:22:00,
2014-07-23 07:23:00,65.0,59.7,30.13,NNW,342,5.0,5.0,83,0.00,,CLR,0.00,172.00,VWS V14.00,2014-07-23 12:23:00,
2014-07-23 07:25:00,65.2,59.9,30.14,NNW,337,0.0,8.0,83,0.00,,CLR,0.00,181.00,VWS V14.00,2014-07-23 12:25:00,
2014-07-23 07:26:00,65.2,59.9,30.14,North,355,5.0,8.0,83,0.00,,CLR,0.00,183.00,VWS V14.00,2014-07-23 12:26:00,
2014-07-23 07:27:00,65.3,60.0,30.14,NNW,335,3.0,8.0,83,0.00,,CLR,0.00,186.00,VWS V14.00,2014-07-23 12:27:00,
2014-07-23 07:28:00,65.4,60.1,30.14,NNW,331,4.0,7.0,83,0.00,,CLR,0.00,188.00,VWS V14.00,2014-07-23 12:28:00,
2014-07-23 07:29:00,65.4,60.1,30.14,NNW,329,0.0,7.0,83,0.00,,CLR,0.00,192.00,VWS V14.00,2014-07-23 12:29:00,
2014-07-23 07:30:00,65.6,60.3,30.14,NNW,341,5.0,7.0,83,0.00,,CLR,0.00,197.00,VWS V14.00,2014-07-23 12:30:00,
2014-07-23 07:31:00,65.6,60.0,30.14,North,360,5.0,7.0,82,0.00,,CLR,0.00,200.00,VWS V14.00,2014-07-23 12:31:00,
2014-07-23 07:32:00,65.6,60.0,30.14,North,9,5.0,7.0,82,0.00,,CLR,0.00,202.00,VWS V14.00,2014-07-23 12:32:00,
2014-07-23 07:33:00,65.7,60.1,30.14,North,355,6.0,6.0,82,0.00,,CLR,0.00,206.00,VWS V14.00,2014-07-23 12:33:00,
2014-07-23 07:35:00,65.8,60.2,30.14,NNW,340,0.0,8.0,82,0.00,,CLR,0.00,213.00,VWS V14.00,2014-07-23 12:35:00,
2014-07-23 07:36:00,65.8,60.2,30.14,NNW,347,4.0,8.0,82,0.00,,CLR,0.00,213.00,VWS V14.00,2014-07-23 12:36:00,
2014-07-23 07:37:00,65.9,60.3,30.14,NNW,337,5.0,8.0,82,0.00,,CLR,0.00,218.00,VWS V14.00,2014-07-23 12:37:00,
2014-07-23 07:38:00,66.0,60.3,30.13,North,5,0.0,4.0,82,0.00,,CLR,0.00,221.00,VWS V14.00,2014-07-23 12:38:00,
2014-07-23 07:39:00,66.0,60.3,30.13,North,351,5.0,5.0,82,0.00,,CLR,0.00,225.00,VWS V14.00,2014-07-23 12:39:00,